Monistrol de Calders





Hora UTC 20:05
Temperatura 21.7 ºC
Humitat 71.0 %
Pressió 1017.8 hPa
Pluja 0.2 mm
Velocitat vent 6.4 km/h
Direcció vent E

Dades diàries 2022-08-19



Hora UTC (hivern +1h; estiu +2h)
Temperatura (ºC) Humitat (%) Pressió (hPa) Velocitat vent (km/h) Precipitació (mm)
Hora UTC Aire Humitat Pressió Vel. Dir. Vel. Max Dir. Intent. màx 5 min.
00:05 13.5 88.0 1016.4 1.6 S 1.6 0.0
00:10 13.4 88.0 1016.4 0.0 S 4.8 0.0
00:15 13.4 88.0 1016.4 0.0 S 4.8 0.0
00:20 13.4 88.0 1016.4 0.0 S 4.8 0.0
00:25 13.3 88.0 1016.4 1.6 S 8.0 0.0
00:30 13.3 88.0 1016.4 0.0 S 4.8 0.0
00:35 13.3 88.0 1016.2 3.2 S 6.4 0.0
00:40 13.2 88.0 1016.2 0.0 S 4.8 0.0
00:45 13.2 88.0 1016.3 0.0 S 0.0 0.0
00:50 13.3 88.0 1016.4 0.0 S 0.0 0.0
00:55 13.3 88.0 1016.4 0.0 S 0.0 0.0
01:00 13.3 88.0 1016.3 0.0 S 0.0 0.0
01:05 13.3 88.0 1016.2 0.0 S 3.2 0.0
01:10 13.3 88.0 1016.2 1.6 S 4.8 0.0
01:15 13.3 88.0 1016.2 3.2 S 4.8 0.0
01:20 13.3 88.0 1016.2 3.2 S 4.8 0.0
01:25 13.3 88.0 1016.1 8.0 SE 9.7 0.0
01:30 13.2 88.0 1016.1 1.6 ESE 9.7 0.0
01:35 13.1 88.0 1016.2 3.2 ESE 9.7 0.0
01:40 13.1 88.0 1016.2 1.6 ESE 4.8 0.0
01:45 13.1 88.0 1016.3 0.0 ESE 3.2 0.0
01:50 13.2 88.0 1016.3 0.0 ESE 0.0 0.0
01:55 13.1 88.0 1016.4 0.0 ESE 3.2 0.0
02:00 13.1 88.0 1016.4 3.2 ESE 4.8 0.0
02:05 12.9 88.0 1016.4 4.8 ESE 4.8 0.0
02:10 12.9 88.0 1016.5 1.6 ESE 4.8 0.0
02:15 12.9 88.0 1016.5 1.6 ESE 4.8 0.0
02:20 12.9 88.0 1016.4 3.2 ESE 4.8 0.0
02:25 12.8 88.0 1016.5 4.8 ESE 6.4 0.0
02:30 12.8 88.0 1016.5 1.6 ESE 6.4 0.0
02:35 12.8 88.0 1016.6 0.0 ESE 6.4 0.0
02:40 12.7 88.0 1016.6 3.2 ESE 4.8 0.0
02:45 12.8 88.0 1016.6 0.0 ESE 4.8 0.0
02:50 12.8 88.0 1016.6 4.8 ESE 4.8 0.0
02:55 12.7 88.0 1016.6 3.2 ESE 6.4 0.0
03:00 12.6 88.0 1016.6 3.2 ESE 6.4 0.0
03:05 12.6 88.0 1016.6 3.2 ESE 4.8 0.0
03:10 12.6 88.0 1016.7 0.0 ESE 4.8 0.0
03:15 12.6 88.0 1016.7 1.6 ESE 3.2 0.0
03:20 12.4 88.0 1016.8 6.4 ESE 6.4 0.0
03:25 12.3 88.0 1016.8 1.6 ESE 6.4 0.0
03:30 12.4 88.0 1016.9 0.0 ESE 6.4 0.0
03:35 12.4 88.0 1016.9 0.0 ESE 3.2 0.0
03:40 12.5 88.0 1016.9 0.0 ESE 0.0 0.0
03:45 12.4 88.0 1016.8 0.0 ESE 1.6 0.0
03:50 12.3 88.0 1016.9 0.0 ESE 0.0 0.0
03:55 12.3 88.0 1016.9 0.0 ESE 3.2 0.0
04:00 12.2 88.0 1016.9 0.0 ESE 3.2 0.0
04:05 12.2 88.0 1016.9 3.2 ESE 4.8 0.0
04:10 12.1 88.0 1017.0 0.0 ESE 4.8 0.0
04:15 12.1 88.0 1017.0 0.0 ESE 4.8 0.0
04:20 12.0 88.0 1017.0 0.0 ESE 1.6 0.0
04:25 11.9 88.0 1017.1 0.0 ESE 3.2 0.0
04:30 11.9 88.0 1017.0 0.0 ESE 3.2 0.0
04:35 11.9 88.0 1017.0 0.0 ESE 0.0 0.0
04:40 11.8 88.0 1017.1 0.0 ESE 0.0 0.0
04:45 11.8 88.0 1017.0 0.0 ESE 0.0 0.0
04:50 11.7 88.0 1017.1 0.0 ESE 3.2 0.0
04:55 11.6 88.0 1017.2 0.0 ESE 3.2 0.0
05:00 11.6 88.0 1017.2 1.6 ESE 3.2 0.0
05:05 11.4 88.0 1017.3 3.2 ESE 4.8 0.0
05:10 11.4 88.0 1017.3 0.0 ESE 4.8 0.0
05:15 11.4 88.0 1017.4 0.0 ESE 4.8 0.0
05:20 11.4 88.0 1017.5 1.6 ESE 4.8 0.0
05:25 11.3 88.0 1017.6 0.0 ESE 4.8 0.0
05:30 11.3 88.0 1017.6 0.0 ESE 1.6 0.0
05:35 11.3 88.0 1017.6 0.0 ESE 0.0 0.0
05:40 11.3 88.0 1017.7 0.0 ESE 0.0 0.0
05:45 11.3 88.0 1017.7 0.0 ESE 0.0 0.0
05:50 11.3 88.0 1017.8 0.0 ESE 0.0 0.0
05:55 11.4 88.0 1017.8 0.0 ESE 0.0 0.0
06:00 11.6 88.0 1017.9 0.0 ESE 0.0 0.0
06:05 11.7 88.0 1018.1 1.6 ESE 3.2 0.0
06:10 11.8 88.0 1018.1 3.2 ESE 6.4 0.0
06:15 12.0 88.0 1018.2 0.0 ESE 6.4 0.0
06:20 12.2 88.0 1018.1 0.0 ESE 4.8 0.0
06:25 12.4 88.0 1018.2 0.0 ESE 3.2 0.0
06:30 12.8 88.0 1018.1 0.0 ESE 0.0 0.0
06:35 13.0 87.0 1018.1 0.0 ESE 0.0 0.0
06:40 13.2 87.0 1018.2 0.0 ESE 0.0 0.0
06:45 13.4 87.0 1018.1 0.0 ESE 0.0 0.2
06:50 13.8 87.0 1017.9 0.0 ESE 0.0 0.0
06:55 13.9 87.0 1017.8 0.0 ESE 0.0 0.0
07:00 13.9 87.0 1018.0 0.0 ESE 0.0 0.0
07:05 14.3 87.0 1018.0 0.0 ESE 0.0 0.0
07:10 14.9 87.0 1018.1 0.0 ESE 3.2 0.0
07:15 15.3 87.0 1018.2 0.0 ESE 3.2 0.0
07:20 15.6 87.0 1018.2 0.0 ESE 0.0 0.0
07:25 15.8 87.0 1018.2 0.0 ESE 0.0 0.0
07:30 16.1 87.0 1018.2 0.0 ESE 0.0 0.0
07:35 16.4 87.0 1018.2 0.0 ESE 4.8 0.0
07:40 16.6 87.0 1018.1 1.6 ESE 6.4 0.0
07:45 16.8 87.0 1018.1 1.6 E 9.7 0.0
07:50 16.9 86.0 1018.2 0.0 E 9.7 0.0
07:55 17.1 86.0 1018.2 0.0 E 0.0 0.0
08:00 17.3 85.0 1018.2 1.6 E 3.2 0.0
08:05 17.6 85.0 1018.1 1.6 E 3.2 0.0
08:10 17.7 84.0 1018.1 0.0 NW 4.8 0.0
08:15 17.8 84.0 1018.1 0.0 NW 4.8 0.0
08:20 17.9 82.0 1018.2 0.0 WNW 4.8 0.0
08:25 18.2 82.0 1018.3 0.0 WNW 4.8 0.0
08:30 18.3 82.0 1018.3 3.2 E 6.4 0.0
08:35 18.6 81.0 1018.2 0.0 S 6.4 0.0
08:40 18.9 81.0 1018.1 0.0 SW 1.6 0.0
08:45 19.1 79.0 1018.1 0.0 SW 0.0 0.0
08:50 19.3 78.0 1018.0 0.0 SW 3.2 0.0
08:55 19.4 77.0 1018.1 1.6 SW 3.2 0.0
09:00 19.6 76.0 1018.1 4.8 WSW 4.8 0.0
09:05 19.8 76.0 1018.1 0.0 ENE 6.4 0.0
09:10 20.2 75.0 1018.0 1.6 ENE 6.4 0.0
09:15 20.4 75.0 1018.0 0.0 NW 4.8 0.0
09:20 20.7 74.0 1018.0 0.0 NW 4.8 0.0
09:25 20.9 73.0 1018.1 4.8 NW 4.8 0.0
09:30 21.1 73.0 1018.1 1.6 NNE 6.4 0.0
09:35 21.3 72.0 1018.1 1.6 W 8.0 0.0
09:40 21.3 70.0 1017.9 3.2 WNW 8.0 0.0
09:45 21.4 69.0 1017.9 4.8 SW 6.4 0.0
09:50 21.6 70.0 1017.9 1.6 WNW 4.8 0.0
09:55 21.6 67.0 1017.9 0.0 SSW 9.7 0.0
10:00 21.7 67.0 1017.9 4.8 W 9.7 0.0
10:05 21.6 66.0 1017.9 1.6 WSW 8.0 0.0
10:10 21.6 66.0 1018.0 4.8 WNW 12.9 0.0
10:15 21.7 68.0 1017.9 4.8 SW 12.9 0.0
10:20 22.0 67.0 1017.9 0.0 NW 11.3 0.0
10:25 22.3 67.0 1017.8 3.2 WNW 8.0 0.0
10:30 22.6 62.0 1017.7 0.0 W 9.7 0.0
10:35 22.8 62.0 1017.7 1.6 WNW 9.7 0.0
10:40 22.9 60.0 1017.7 1.6 E 4.8 0.0
10:45 23.2 61.0 1017.6 4.8 W 6.4 0.0
10:50 23.3 57.0 1017.7 3.2 WSW 11.3 0.0
10:55 23.1 59.0 1017.6 0.0 SSW 11.3 0.0
11:00 23.4 58.0 1017.7 1.6 WSW 11.3 0.0
11:05 23.8 58.0 1017.7 1.6 WSW 9.7 0.0
11:10 23.9 60.0 1017.6 6.4 WSW 9.7 0.0
11:15 24.2 56.0 1017.6 6.4 SW 11.3 0.0
11:20 24.2 59.0 1017.6 3.2 WNW 11.3 0.0
11:25 24.5 59.0 1017.4 0.0 W 4.8 0.0
11:30 24.9 55.0 1017.4 1.6 WSW 6.4 0.0
11:35 25.1 54.0 1017.4 4.8 WSW 6.4 0.0
11:40 25.3 52.0 1017.4 1.6 WNW 6.4 0.0
11:45 25.4 52.0 1017.3 0.0 SSW 6.4 0.0
11:50 25.7 51.0 1017.3 3.2 SSE 6.4 0.0
11:55 25.9 52.0 1017.1 9.7 WNW 9.7 0.0
12:00 26.1 50.0 1017.1 1.6 WNW 8.0 0.0
12:05 25.9 49.0 1017.1 1.6 WSW 8.0 0.0
12:10 26.1 47.0 1017.1 0.0 SW 8.0 0.0
12:15 26.4 47.0 1017.0 4.8 ENE 8.0 0.0
12:20 26.7 46.0 1017.0 0.0 NNE 8.0 0.0
12:25 27.2 44.0 1017.0 1.6 WNW 11.3 0.0
12:30 27.5 42.0 1017.0 0.0 WNW 11.3 0.0
12:35 27.7 41.0 1016.9 3.2 ESE 4.8 0.0
12:40 27.8 41.0 1016.9 0.0 WSW 4.8 0.0
12:45 28.0 43.0 1016.9 3.2 WNW 8.0 0.0
12:50 28.1 40.0 1016.9 3.2 WNW 11.3 0.0
12:55 27.8 40.0 1016.9 1.6 WNW 11.3 0.0
13:00 27.9 40.0 1016.9 0.0 W 9.7 0.0
13:05 28.1 38.0 1016.8 3.2 SW 8.0 0.0
13:10 28.2 38.0 1016.8 8.0 SW 11.3 0.0
13:15 28.0 41.0 1016.8 9.7 W 9.7 0.0
13:20 27.9 40.0 1016.7 9.7 SW 11.3 0.0
13:25 28.1 39.0 1016.6 0.0 WNW 16.1 0.0
13:30 28.3 37.0 1016.6 1.6 WSW 12.9 0.0
13:35 28.5 39.0 1016.5 3.2 WSW 11.3 0.0
13:40 28.6 36.0 1016.5 0.0 ENE 9.7 0.0
13:45 28.3 37.0 1016.5 1.6 SW 6.4 0.0
13:50 28.4 36.0 1016.4 0.0 W 8.0 0.0
13:55 28.8 35.0 1016.5 6.4 W 12.9 0.0
14:00 28.7 35.0 1016.4 0.0 SE 12.9 0.0
14:05 28.7 35.0 1016.4 6.4 WSW 11.3 0.0
14:10 28.8 34.0 1016.4 3.2 SSW 12.9 0.0
14:15 28.7 34.0 1016.2 1.6 SSE 12.9 0.0
14:20 28.8 37.0 1016.2 9.7 W 9.7 0.0
14:25 28.9 34.0 1016.2 12.9 WNW 16.1 0.0
14:30 28.8 36.0 1016.2 4.8 W 20.9 0.0
14:35 28.8 35.0 1016.2 9.7 W 14.5 0.0
14:40 28.6 36.0 1016.2 0.0 WNW 16.1 0.0
14:45 28.6 36.0 1016.2 1.6 W 16.1 0.0
14:50 28.6 36.0 1016.2 0.0 WSW 14.5 0.0
14:55 28.8 36.0 1016.1 0.0 SE 8.0 0.0
15:00 28.8 37.0 1016.0 0.0 WNW 3.2 0.0
15:05 28.9 36.0 1016.0 0.0 W 4.8 0.0
15:10 29.1 36.0 1016.0 0.0 SW 16.1 0.0
15:15 29.0 36.0 1016.0 14.5 S 19.3 0.0
15:20 28.7 37.0 1015.9 0.0 W 16.1 0.0
15:25 28.7 38.0 1016.0 6.4 S 12.9 0.0
15:30 28.7 37.0 1015.9 1.6 SSW 12.9 0.0
15:35 28.7 43.0 1015.9 11.3 SSW 16.1 0.0
15:40 28.2 45.0 1015.9 9.7 SSE 17.7 0.0
15:45 27.7 47.0 1015.9 16.1 SE 20.9 0.0
15:50 27.5 48.0 1015.9 9.7 SSE 20.9 0.0
15:55 27.3 48.0 1015.8 14.5 S 20.9 0.0
16:00 27.1 49.0 1015.8 3.2 SSW 20.9 0.0
16:05 27.1 50.0 1015.8 8.0 SSW 27.4 0.0
16:10 26.9 50.0 1015.7 11.3 SSW 24.1 0.0
16:15 26.9 50.0 1015.9 17.7 SSE 22.5 0.0
16:20 26.6 51.0 1015.9 12.9 SE 22.5 0.0
16:25 26.4 52.0 1015.9 11.3 ESE 22.5 0.0
16:30 26.4 52.0 1015.8 9.7 S 22.5 0.0
16:35 26.2 53.0 1015.9 4.8 SE 25.7 0.0
16:40 26.0 53.0 1015.9 12.9 SE 29.0 0.0
16:45 25.8 54.0 1015.8 0.0 S 22.5 0.0
16:50 25.9 55.0 1015.8 9.7 S 19.3 0.0
16:55 25.8 55.0 1015.8 14.5 SSE 27.4 0.0
17:00 25.6 56.0 1015.8 12.9 SSE 22.5 0.0
17:05 25.4 56.0 1015.8 14.5 ESE 27.4 0.0
17:10 25.4 57.0 1015.7 16.1 SSE 27.4 0.0
17:15 25.4 57.0 1015.7 8.0 SE 20.9 0.0
17:20 25.4 57.0 1015.7 14.5 SSE 24.1 0.0
17:25 25.3 57.0 1015.8 17.7 S 24.1 0.0
17:30 25.1 58.0 1015.8 8.0 SSE 24.1 0.0
17:35 25.0 59.0 1015.8 4.8 SSE 22.5 0.0
17:40 24.9 59.0 1015.8 16.1 SSE 19.3 0.0
17:45 24.8 60.0 1015.7 9.7 S 19.3 0.0
17:50 24.7 60.0 1015.7 8.0 S 19.3 0.0
17:55 24.6 61.0 1015.8 11.3 S 22.5 0.0
18:00 24.3 61.0 1015.9 11.3 SSE 24.1 0.0
18:05 24.2 62.0 1016.0 16.1 SE 22.5 0.0
18:10 24.0 63.0 1016.1 17.7 SSE 22.5 0.0
18:15 23.8 63.0 1016.1 19.3 SSE 19.3 0.0
18:20 23.7 63.0 1016.2 14.5 S 24.1 0.0
18:25 23.6 64.0 1016.2 12.9 S 24.1 0.0
18:30 23.5 64.0 1016.3 9.7 SSE 19.3 0.0
18:35 23.3 65.0 1016.3 12.9 SE 17.7 0.0
18:40 23.2 66.0 1016.4 8.0 SSE 17.7 0.0
18:45 23.1 66.0 1016.5 12.9 SE 16.1 0.0
18:50 23.0 66.0 1016.6 6.4 S 14.5 0.0
18:55 22.9 67.0 1016.7 4.8 ESE 14.5 0.0
19:00 22.8 67.0 1016.7 4.8 SSE 9.7 0.0
19:05 22.7 67.0 1016.9 6.4 ESE 11.3 0.0
19:10 22.7 67.0 1017.0 3.2 SE 11.3 0.0
19:15 22.6 68.0 1017.0 3.2 ESE 11.3 0.0
19:20 22.5 68.0 1017.1 6.4 E 12.9 0.0
19:25 22.4 69.0 1017.2 6.4 E 12.9 0.0
19:30 22.3 69.0 1017.2 9.7 E 16.1 0.0
19:35 22.2 69.0 1017.2 6.4 E 16.1 0.0
19:40 22.1 69.0 1017.3 1.6 SSE 14.5 0.0
19:45 22.1 70.0 1017.4 6.4 SE 11.3 0.0
19:50 21.9 71.0 1017.5 1.6 E 11.3 0.0
19:55 21.8 71.0 1017.6 12.9 E 12.9 0.0
20:00 21.8 71.0 1017.7 4.8 ESE 12.9 0.0
20:05 21.7 71.0 1017.8 6.4 E 11.3 0.0
Màxima 29.1 88.0 1018.3 19.3 SSE 29.0 0.2
Mínima 11.3 34.0 1015.7
Total 0.2